Time,TemperatureF,DewpointF,PressureIn,WindDirection,WindDirectionDegrees,WindSpeedMPH,WindSpeedGustMPH,Humidity,HourlyPrecipIn,Conditions,Clouds,dailyrainin,SoftwareType,DateUTC
2013-05-05 00:00:00,44.0,41.3,30.27,NW,319,6.0,6.0,90,0.00,,,0.00,Wunderground v.1.15,2013-05-05 04:00:00,
2013-05-05 00:10:00,44.1,41.4,30.27,ENE,70,6.0,37.0,90,0.00,,,0.00,Wunderground v.1.15,2013-05-05 04:10:00,
2013-05-05 00:20:00,44.1,41.4,30.27,North,352,6.0,37.0,90,0.00,,,0.00,Wunderground v.1.15,2013-05-05 04:20:00,
2013-05-05 00:30:00,44.2,41.5,30.27,NE,47,6.0,37.0,90,0.00,,,0.00,Wunderground v.1.15,2013-05-05 04:30:00,
2013-05-05 00:40:00,44.0,41.3,30.27,NE,37,5.0,5.0,90,0.00,,,0.00,Wunderground v.1.15,2013-05-05 04:40:00,
2013-05-05 00:50:00,43.9,41.4,30.27,NNE,32,4.0,4.0,91,0.00,,,0.00,Wunderground v.1.15,2013-05-05 04:50:00,
2013-05-05 01:00:00,43.9,41.4,30.26,NE,43,5.0,5.0,91,0.00,,,0.00,Wunderground v.1.15,2013-05-05 05:00:00,
2013-05-05 01:10:00,44.0,41.5,30.26,NNW,348,5.0,5.0,91,0.00,,,0.00,Wunderground v.1.15,2013-05-05 05:10:00,
2013-05-05 01:20:00,44.0,41.5,30.26,North,352,6.0,37.0,91,0.00,,,0.00,Wunderground v.1.15,2013-05-05 05:20:00,
2013-05-05 01:30:00,44.1,41.6,30.26,North,5,6.0,37.0,91,0.00,,,0.00,Wunderground v.1.15,2013-05-05 05:30:00,
2013-05-05 01:40:00,44.1,41.6,30.26,NNE,20,6.0,37.0,91,0.00,,,0.00,Wunderground v.1.15,2013-05-05 05:40:00,
2013-05-05 01:50:00,44.1,41.6,30.25,North,359,6.0,6.0,91,0.00,,,0.00,Wunderground v.1.15,2013-05-05 05:50:00,
2013-05-05 02:00:00,44.2,41.7,30.25,NE,47,7.0,37.0,91,0.00,,,0.00,Wunderground v.1.15,2013-05-05 06:00:00,
2013-05-05 02:10:00,44.2,41.7,30.25,East,80,7.0,7.0,91,0.00,,,0.00,Wunderground v.1.15,2013-05-05 06:10:00,
2013-05-05 02:20:00,44.1,41.6,30.24,NNE,18,7.0,7.0,91,0.00,,,0.00,Wunderground v.1.15,2013-05-05 06:20:00,
2013-05-05 02:30:00,44.1,41.6,30.24,NE,40,6.0,6.0,91,0.00,,,0.00,Wunderground v.1.15,2013-05-05 06:30:00,
2013-05-05 02:40:00,44.1,41.6,30.25,ENE,58,6.0,6.0,91,0.00,,,0.00,Wunderground v.1.15,2013-05-05 06:40:00,
2013-05-05 02:50:00,44.1,41.6,30.25,NNE,30,6.0,6.0,91,0.00,,,0.00,Wunderground v.1.15,2013-05-05 06:50:00,
2013-05-05 03:00:00,44.1,41.9,30.25,North,11,6.0,37.0,92,0.00,,,0.00,Wunderground v.1.15,2013-05-05 07:00:00,
2013-05-05 03:10:00,44.0,41.8,30.25,ENE,58,5.0,5.0,92,0.00,,,0.00,Wunderground v.1.15,2013-05-05 07:10:00,
2013-05-05 03:20:00,44.1,41.6,30.25,NNW,342,6.0,6.0,91,0.00,,,0.00,Wunderground v.1.15,2013-05-05 07:20:00,
2013-05-05 03:30:00,43.9,41.7,30.25,North,350,5.0,5.0,92,0.00,,,0.00,Wunderground v.1.15,2013-05-05 07:30:00,
2013-05-05 03:40:00,43.9,41.7,30.25,NNW,340,7.0,7.0,92,0.00,,,0.00,Wunderground v.1.15,2013-05-05 07:40:00,
2013-05-05 03:50:00,43.9,41.7,30.24,NE,34,6.0,37.0,92,0.00,,,0.00,Wunderground v.1.15,2013-05-05 07:50:00,
2013-05-05 04:00:00,43.9,41.4,30.25,NE,43,6.0,6.0,91,0.00,,,0.00,Wunderground v.1.15,2013-05-05 08:00:00,
2013-05-05 04:10:00,43.9,41.7,30.24,North,352,5.0,5.0,92,0.00,,,0.00,Wunderground v.1.15,2013-05-05 08:10:00,
2013-05-05 04:20:00,44.0,41.5,30.24,NE,41,6.0,37.0,91,0.00,,,0.00,Wunderground v.1.15,2013-05-05 08:20:00,
2013-05-05 04:30:00,44.0,41.5,30.24,NNE,19,6.0,37.0,91,0.00,,,0.00,Wunderground v.1.15,2013-05-05 08:30:00,
2013-05-05 04:40:00,44.0,41.5,30.24,North,352,7.0,37.0,91,0.00,,,0.00,Wunderground v.1.15,2013-05-05 08:40:00,
2013-05-05 04:50:00,44.0,41.5,30.24,North,1,6.0,37.0,91,0.00,,,0.00,Wunderground v.1.15,2013-05-05 08:50:00,
2013-05-05 05:00:00,44.0,41.5,30.24,NE,50,6.0,37.0,91,0.00,,,0.00,Wunderground v.1.15,2013-05-05 09:00:00,
2013-05-05 05:11:00,44.1,41.6,30.25,North,8,7.0,7.0,91,0.00,,,0.00,Wunderground v.1.15,2013-05-05 09:11:00,
2013-05-05 05:20:00,43.9,41.4,30.25,North,11,5.0,5.0,91,0.00,,,0.00,Wunderground v.1.15,2013-05-05 09:20:00,
2013-05-05 05:30:00,43.9,41.4,30.25,NNE,27,5.0,5.0,91,0.00,,,0.00,Wunderground v.1.15,2013-05-05 09:30:00,
2013-05-05 05:40:00,43.9,41.7,30.25,North,354,5.0,5.0,92,0.00,,,0.00,Wunderground v.1.15,2013-05-05 09:40:00,
2013-05-05 05:50:00,44.0,41.8,30.25,NE,51,5.0,5.0,92,0.00,,,0.00,Wunderground v.1.15,2013-05-05 09:50:00,
2013-05-05 06:00:00,44.2,42.3,30.25,NE,56,5.0,37.0,93,0.00,,,0.00,Wunderground v.1.15,2013-05-05 10:00:00,
2013-05-05 06:10:00,44.5,42.0,30.25,NNE,20,7.0,7.0,91,0.00,,,0.00,Wunderground v.1.15,2013-05-05 10:10:00,
2013-05-05 06:20:00,44.7,42.2,30.25,NNW,343,6.0,6.0,91,0.00,,,0.00,Wunderground v.1.15,2013-05-05 10:20:00,
2013-05-05 06:30:00,44.8,42.0,30.26,NNE,16,6.0,6.0,90,0.00,,,0.00,Wunderground v.1.15,2013-05-05 10:30:00,
2013-05-05 06:40:00,44.9,41.9,30.26,NE,47,7.0,7.0,89,0.00,,,0.00,Wunderground v.1.15,2013-05-05 10:40:00,
2013-05-05 06:50:00,45.2,42.2,30.26,ENE,57,6.0,37.0,89,0.00,,,0.00,Wunderground v.1.15,2013-05-05 10:50:00,
2013-05-05 07:00:00,45.1,42.1,30.26,NNW,338,8.0,8.0,89,0.00,,,0.00,Wunderground v.1.15,2013-05-05 11:00:00,
2013-05-05 07:10:00,45.5,42.4,30.26,ENE,75,7.0,37.0,89,0.00,,,0.00,Wunderground v.1.15,2013-05-05 11:10:00,
2013-05-05 07:20:00,45.9,42.5,30.26,NNE,23,6.0,37.0,88,0.00,,,0.00,Wunderground v.1.15,2013-05-05 11:20:00,
2013-05-05 07:30:00,46.0,42.6,30.26,NE,56,8.0,37.0,88,0.00,,,0.00,Wunderground v.1.15,2013-05-05 11:30:00,
2013-05-05 07:40:00,46.3,42.6,30.26,NNE,16,8.0,8.0,87,0.00,,,0.00,Wunderground v.1.15,2013-05-05 11:40:00,
2013-05-05 07:50:00,46.7,42.7,30.27,NE,56,9.0,9.0,86,0.00,,,0.00,Wunderground v.1.15,2013-05-05 11:50:00,
2013-05-05 08:00:00,46.9,42.9,30.27,NE,54,9.0,9.0,86,0.00,,,0.00,Wunderground v.1.15,2013-05-05 12:00:00,
2013-05-05 08:10:00,47.4,43.4,30.27,NE,49,8.0,8.0,86,0.00,,,0.00,Wunderground v.1.15,2013-05-05 12:10:00,
2013-05-05 08:20:00,47.9,43.3,30.27,NW,319,8.0,8.0,84,0.00,,,0.00,Wunderground v.1.15,2013-05-05 12:20:00,
2013-05-05 08:30:00,48.0,43.4,30.27,NNE,19,8.0,37.0,84,0.00,,,0.00,Wunderground v.1.15,2013-05-05 12:30:00,
2013-05-05 08:40:00,48.5,43.6,30.27,NNE,33,7.0,7.0,83,0.00,,,0.00,Wunderground v.1.15,2013-05-05 12:40:00,
2013-05-05 08:50:00,49.3,43.4,30.27,NNE,19,5.0,5.0,80,0.00,,,0.00,Wunderground v.1.15,2013-05-05 12:50:00,
2013-05-05 09:00:00,49.7,43.5,30.27,NE,44,6.0,37.0,79,0.00,,,0.00,Wunderground v.1.15,2013-05-05 13:00:00,
2013-05-05 09:10:00,49.1,43.5,30.27,NNE,13,8.0,8.0,81,0.00,,,0.00,Wunderground v.1.15,2013-05-05 13:10:00,
2013-05-05 09:20:00,49.5,43.6,30.27,ENE,60,7.0,37.0,80,0.00,,,0.00,Wunderground v.1.15,2013-05-05 13:20:00,
2013-05-05 09:30:00,49.7,43.5,30.27,North,6,7.0,37.0,79,0.00,,,0.00,Wunderground v.1.15,2013-05-05 13:30:00,
2013-05-05 09:40:00,50.4,43.8,30.27,NE,50,7.0,37.0,78,0.00,,,0.00,Wunderground v.1.15,2013-05-05 13:40:00,
2013-05-05 09:50:00,50.6,44.0,30.27,NNE,20,8.0,37.0,78,0.00,,,0.00,Wunderground v.1.15,2013-05-05 13:50:00,
2013-05-05 10:00:00,51.0,44.7,30.27,ENE,70,7.0,7.0,79,0.00,,,0.00,Wunderground v.1.15,2013-05-05 14:00:00,
2013-05-05 10:10:00,51.8,44.5,30.27,East,89,6.0,37.0,76,0.00,,,0.00,Wunderground v.1.15,2013-05-05 14:10:00,
2013-05-05 10:20:00,51.0,44.0,30.27,NNE,18,7.0,37.0,77,0.00,,,0.00,Wunderground v.1.15,2013-05-05 14:20:00,
2013-05-05 10:30:00,50.6,44.3,30.27,NE,46,8.0,37.0,79,0.00,,,0.00,Wunderground v.1.15,2013-05-05 14:30:00,
2013-05-05 10:40:00,51.4,45.1,30.27,NNE,20,7.0,37.0,79,0.00,,,0.00,Wunderground v.1.15,2013-05-05 14:40:00,
2013-05-05 10:50:00,51.1,43.4,30.27,NE,51,7.0,37.0,75,0.00,,,0.00,Wunderground v.1.15,2013-05-05 14:50:00,
2013-05-05 11:00:00,51.9,44.6,30.27,North,11,7.0,7.0,76,0.00,,,0.00,Wunderground v.1.15,2013-05-05 15:00:00,
2013-05-05 11:10:00,52.9,45.2,30.27,NNE,12,5.0,37.0,75,0.00,,,0.00,Wunderground v.1.15,2013-05-05 15:10:00,
2013-05-05 11:20:00,51.4,44.1,30.27,ENE,64,8.0,8.0,76,0.00,,,0.00,Wunderground v.1.15,2013-05-05 15:20:00,
2013-05-05 11:30:00,51.0,44.4,30.27,North,10,8.0,8.0,78,0.00,,,0.00,Wunderground v.1.15,2013-05-05 15:30:00,
2013-05-05 11:40:00,51.3,44.0,30.27,NE,41,7.0,37.0,76,0.00,,,0.00,Wunderground v.1.15,2013-05-05 15:40:00,
2013-05-05 11:50:00,51.0,43.7,30.27,NNE,18,8.0,8.0,76,0.00,,,0.00,Wunderground v.1.15,2013-05-05 15:50:00,
2013-05-05 12:00:00,51.6,42.9,30.27,NNE,20,7.0,37.0,72,0.00,,,0.00,Wunderground v.1.15,2013-05-05 16:00:00,
2013-05-05 12:10:00,52.4,44.0,30.27,NNE,26,7.0,7.0,73,0.00,,,0.00,Wunderground v.1.15,2013-05-05 16:10:00,
2013-05-05 12:20:00,51.2,43.9,30.27,SE,133,9.0,9.0,76,0.00,,,0.00,Wunderground v.1.15,2013-05-05 16:20:00,
2013-05-05 12:30:00,50.8,43.5,30.27,North,352,9.0,37.0,76,0.00,,,0.00,Wunderground v.1.15,2013-05-05 16:30:00,
2013-05-05 12:40:00,50.9,44.3,30.27,NW,316,10.0,10.0,78,0.00,,,0.00,Wunderground v.1.15,2013-05-05 16:40:00,
2013-05-05 12:50:00,51.0,43.7,30.27,NE,42,8.0,37.0,76,0.00,,,0.00,Wunderground v.1.15,2013-05-05 16:50:00,
2013-05-05 13:00:00,50.5,43.6,30.27,NE,43,11.0,11.0,77,0.00,,,0.00,Wunderground v.1.15,2013-05-05 17:00:00,
2013-05-05 13:10:00,50.9,44.3,30.27,NNW,338,9.0,9.0,78,0.00,,,0.00,Wunderground v.1.15,2013-05-05 17:10:00,
2013-05-05 13:20:00,51.2,44.6,30.27,NNE,18,8.0,37.0,78,0.00,,,0.00,Wunderground v.1.15,2013-05-05 17:20:00,
2013-05-05 13:30:00,51.0,44.0,30.27,NNW,347,9.0,9.0,77,0.00,,,0.00,Wunderground v.1.15,2013-05-05 17:30:00,
2013-05-05 13:40:00,51.4,44.1,30.27,NNE,20,8.0,37.0,76,0.00,,,0.00,Wunderground v.1.15,2013-05-05 17:40:00,
2013-05-05 13:50:00,50.9,44.3,30.27,NNE,16,9.0,9.0,78,0.00,,,0.00,Wunderground v.1.15,2013-05-05 17:50:00,
2013-05-05 14:00:00,51.0,44.7,30.27,North,354,9.0,9.0,79,0.00,,,0.00,Wunderground v.1.15,2013-05-05 18:00:00,
2013-05-05 14:10:00,51.9,45.3,30.27,NNE,20,7.0,7.0,78,0.00,,,0.00,Wunderground v.1.15,2013-05-05 18:10:00,
2013-05-05 14:20:00,51.6,45.0,30.27,NNE,13,7.0,37.0,78,0.00,,,0.00,Wunderground v.1.15,2013-05-05 18:20:00,
2013-05-05 14:30:00,50.8,44.9,30.27,NE,43,9.0,9.0,80,0.00,,,0.00,Wunderground v.1.15,2013-05-05 18:30:00,
2013-05-05 14:40:00,50.8,44.2,30.26,East,88,9.0,37.0,78,0.00,,,0.00,Wunderground v.1.15,2013-05-05 18:40:00,
2013-05-05 14:50:00,50.8,43.5,30.26,NE,50,9.0,37.0,76,0.00,,,0.00,Wunderground v.1.15,2013-05-05 18:50:00,
2013-05-05 15:00:00,51.1,44.5,30.26,NE,47,9.0,9.0,78,0.00,,,0.00,Wunderground v.1.15,2013-05-05 19:00:00,
2013-05-05 15:10:00,51.0,43.7,30.25,North,1,9.0,9.0,76,0.00,,,0.00,Wunderground v.1.15,2013-05-05 19:10:00,
2013-05-05 15:20:00,50.5,43.2,30.26,ENE,70,10.0,37.0,76,0.00,,,0.00,Wunderground v.1.15,2013-05-05 19:20:00,
2013-05-05 15:30:00,50.5,43.6,30.25,ENE,67,10.0,37.0,77,0.00,,,0.00,Wunderground v.1.15,2013-05-05 19:30:00,
2013-05-05 15:40:00,51.0,43.4,30.26,ENE,78,8.0,37.0,75,0.00,,,0.00,Wunderground v.1.15,2013-05-05 19:40:00,
2013-05-05 15:50:00,50.4,43.5,30.26,ENE,78,10.0,37.0,77,0.00,,,0.00,Wunderground v.1.15,2013-05-05 19:50:00,
2013-05-05 16:00:00,50.7,43.8,30.25,ENE,77,8.0,37.0,77,0.00,,,0.00,Wunderground v.1.15,2013-05-05 20:00:00,
2013-05-05 16:10:00,50.2,43.6,30.26,ENE,64,9.0,9.0,78,0.00,,,0.00,Wunderground v.1.15,2013-05-05 20:10:00,
2013-05-05 16:20:00,50.2,43.6,30.25,North,5,8.0,8.0,78,0.00,,,0.00,Wunderground v.1.15,2013-05-05 20:20:00,
2013-05-05 16:30:00,49.9,43.6,30.25,NE,39,8.0,37.0,79,0.00,,,0.00,Wunderground v.1.15,2013-05-05 20:30:00,
2013-05-05 16:40:00,49.5,43.6,30.25,North,5,8.0,8.0,80,0.00,,,0.00,Wunderground v.1.15,2013-05-05 20:40:00,
2013-05-05 16:50:00,49.2,43.6,30.25,ENE,70,8.0,37.0,81,0.00,,,0.00,Wunderground v.1.15,2013-05-05 20:50:00,
2013-05-05 17:00:00,49.1,43.8,30.24,North,356,8.0,8.0,82,0.00,,,0.00,Wunderground v.1.15,2013-05-05 21:00:00,
2013-05-05 17:10:00,49.6,44.0,30.24,ENE,65,7.0,37.0,81,0.00,,,0.00,Wunderground v.1.15,2013-05-05 21:10:00,
2013-05-05 17:20:00,49.3,44.4,30.24,NNW,335,7.0,7.0,83,0.00,,,0.00,Wunderground v.1.15,2013-05-05 21:20:00,
2013-05-05 17:30:00,49.6,44.3,30.24,NNE,27,5.0,5.0,82,0.00,,,0.00,Wunderground v.1.15,2013-05-05 21:30:00,
2013-05-05 17:40:00,48.4,43.8,30.25,North,11,8.0,37.0,84,0.00,,,0.00,Wunderground v.1.15,2013-05-05 21:40:00,
2013-05-05 17:50:00,48.0,43.7,30.25,ENE,63,7.0,37.0,85,0.00,,,0.00,Wunderground v.1.15,2013-05-05 21:50:00,
2013-05-05 18:00:00,47.6,43.6,30.25,East,94,7.0,37.0,86,0.00,,,0.00,Wunderground v.1.15,2013-05-05 22:00:00,
2013-05-05 18:10:00,48.1,44.1,30.24,North,350,5.0,5.0,86,0.00,,,0.00,Wunderground v.1.15,2013-05-05 22:10:00,
2013-05-05 18:20:00,47.8,44.1,30.24,NE,47,6.0,6.0,87,0.00,,,0.00,Wunderground v.1.15,2013-05-05 22:20:00,
2013-05-05 18:30:00,47.7,43.7,30.24,East,95,5.0,37.0,86,0.00,,,0.00,Wunderground v.1.15,2013-05-05 22:30:00,
2013-05-05 18:40:00,47.3,43.6,30.24,NNE,23,6.0,6.0,87,0.00,,,0.00,Wunderground v.1.15,2013-05-05 22:40:00,
2013-05-05 18:50:00,47.2,43.8,30.24,East,86,5.0,37.0,88,0.00,,,0.00,Wunderground v.1.15,2013-05-05 22:50:00,
2013-05-05 19:00:00,46.7,43.6,30.24,East,89,6.0,6.0,89,0.00,,,0.00,Wunderground v.1.15,2013-05-05 23:00:00,
2013-05-05 19:10:00,46.4,43.3,30.25,North,11,4.0,4.0,89,0.00,,,0.00,Wunderground v.1.15,2013-05-05 23:10:00,
2013-05-05 19:20:00,46.4,43.6,30.25,NNE,18,3.0,37.0,90,0.00,,,0.00,Wunderground v.1.15,2013-05-05 23:20:00,
2013-05-05 19:30:00,46.1,43.3,30.25,East,86,4.0,4.0,90,0.00,,,0.00,Wunderground v.1.15,2013-05-05 23:30:00,
2013-05-05 19:40:00,45.8,43.3,30.25,East,82,4.0,4.0,91,0.00,,,0.00,Wunderground v.1.15,2013-05-05 23:40:00,
2013-05-05 19:50:00,45.5,43.0,30.25,East,92,3.0,3.0,91,0.00,,,0.00,Wunderground v.1.15,2013-05-05 23:50:00,
2013-05-05 20:00:00,45.2,43.0,30.25,East,98,2.0,37.0,92,0.00,,,0.00,Wunderground v.1.15,2013-05-06 00:00:00,
2013-05-05 20:10:00,44.9,42.7,30.25,East,88,1.0,37.0,92,0.00,,,0.00,Wunderground v.1.15,2013-05-06 00:10:00,
2013-05-05 20:20:00,44.8,42.9,30.25,SSE,148,1.0,37.0,93,0.00,,,0.00,Wunderground v.1.15,2013-05-06 00:20:00,
2013-05-05 20:30:00,44.6,42.7,30.25,SE,135,2.0,37.0,93,0.00,,,0.00,Wunderground v.1.15,2013-05-06 00:30:00,
2013-05-05 20:40:00,44.4,42.8,30.25,SE,127,3.0,3.0,94,0.00,,,0.00,Wunderground v.1.15,2013-05-06 00:40:00,
2013-05-05 20:50:00,44.4,42.8,30.26,SE,141,2.0,37.0,94,0.00,,,0.00,Wunderground v.1.15,2013-05-06 00:50:00,
2013-05-05 21:00:00,44.5,42.9,30.26,ESE,122,2.0,37.0,94,0.00,,,0.00,Wunderground v.1.15,2013-05-06 01:00:00,
2013-05-05 21:10:00,44.6,43.0,30.26,SE,132,2.0,37.0,94,0.00,,,0.00,Wunderground v.1.15,2013-05-06 01:10:00,
2013-05-05 21:20:00,44.6,43.0,30.26,SE,129,3.0,3.0,94,0.00,,,0.00,Wunderground v.1.15,2013-05-06 01:20:00,
2013-05-05 21:30:00,44.6,43.0,30.26,South,172,2.0,37.0,94,0.00,,,0.00,Wunderground v.1.15,2013-05-06 01:30:00,
2013-05-05 21:40:00,44.6,43.0,30.26,ESE,120,2.0,2.0,94,0.00,,,0.00,Wunderground v.1.15,2013-05-06 01:40:00,
2013-05-05 21:50:00,44.2,42.6,30.26,SE,139,1.0,37.0,94,0.00,,,0.00,Wunderground v.1.15,2013-05-06 01:50:00,
2013-05-05 22:00:00,44.1,42.5,30.26,SE,139,1.0,37.0,94,0.00,,,0.00,Wunderground v.1.15,2013-05-06 02:00:00,
2013-05-05 22:10:00,44.1,42.8,30.26,SE,133,1.0,37.0,95,0.00,,,0.00,Wunderground v.1.15,2013-05-06 02:10:00,
2013-05-05 22:20:00,44.2,42.9,30.26,SE,139,1.0,1.0,95,0.00,,,0.00,Wunderground v.1.15,2013-05-06 02:20:00,
2013-05-05 22:30:00,44.4,43.1,30.26,SE,139,1.0,1.0,95,0.00,,,0.00,Wunderground v.1.15,2013-05-06 02:30:00,
2013-05-05 22:40:00,44.5,43.2,30.26,SE,143,1.0,37.0,95,0.00,,,0.00,Wunderground v.1.15,2013-05-06 02:40:00,
2013-05-05 22:50:00,44.5,42.9,30.25,ESE,122,4.0,37.0,94,0.00,,,0.00,Wunderground v.1.15,2013-05-06 02:50:00,
2013-05-05 23:00:00,44.5,42.9,30.25,SE,131,3.0,3.0,94,0.00,,,0.00,Wunderground v.1.15,2013-05-06 03:00:00,
2013-05-05 23:10:00,44.5,42.9,30.25,ENE,76,2.0,2.0,94,0.00,,,0.00,Wunderground v.1.15,2013-05-06 03:10:00,
2013-05-05 23:20:00,44.4,42.8,30.25,ESE,122,3.0,37.0,94,0.00,,,0.00,Wunderground v.1.15,2013-05-06 03:20:00,
2013-05-05 23:30:00,44.2,42.6,30.25,ESE,110,3.0,37.0,94,0.00,,,0.00,Wunderground v.1.15,2013-05-06 03:30:00,
2013-05-05 23:40:00,43.8,42.2,30.25,NE,56,4.0,37.0,94,0.00,,,0.00,Wunderground v.1.15,2013-05-06 03:40:00,
2013-05-05 23:50:00,43.6,42.3,30.25,SE,130,4.0,37.0,95,0.00,,,0.00,Wunderground v.1.15,2013-05-06 03:50:00,